[[{"header":{"parameterUnit":"m.s-1","parameterCategory":1,"la1":30.2991,"la2":30.254,"lo1":-89.0895,"lo2":-89.0444,"dy":0.0017,"dx":0.0017,"nx":28,"ny":28,"refTime":"2024-05-29T21:00:00:Z","depth":0,"parameterNumber":2,"parameterNumberName":"U-component_of_WINDS"},"data":[0,0,0,0,0,0,0,0,0,0,0,0,0,0,0,0,0,0,0,0,0,0,0,0,0,0,0,0,0,0,0,0,0,0,0,0,0,0,0,0,0,0,0,0,0,0,0,0,0,0,0,0,0,0,0,0,0,0,-3.8332,-3.8334,0,-3.8464,-3.8465,-3.8467,-3.8498,-3.8497,-3.8496,-3.8495,-3.8626,-3.863,-3.8634,0,0,0,0,0,0,0,0,0,0,0,0,0,-3.8104,-3.8108,-3.8332,-3.8334,-3.8335,-3.8464,-3.8465,-3.8467,-3.8498,-3.8497,-3.8496,-3.8495,-3.8625,-3.863,-3.8635,0,0,0,0,0,0,0,0,0,0,0,0,0,-3.8216,-3.8109,-3.8332,-3.8366,-3.8371,-3.8463,-3.8465,-3.8468,-3.8498,-3.8497,-3.8496,-3.8495,-3.8623,-3.8629,-3.8635,-3.8701,0,0,-3.8655,-3.8658,0,0,0,0,0,0,0,0,-3.8209,-3.8224,-3.836,-3.8364,-3.8369,-3.8463,-3.8433,-3.8546,-3.8499,-3.845,-3.8495,-3.8494,-3.8573,-3.8583,-3.861,-3.8707,-3.8713,-3.8656,-3.866,-3.8662,-3.8664,0,0,0,0,0,0,0,-3.8202,-3.8219,-3.8384,-3.8362,-3.8368,-3.8374,-3.8389,-3.8454,-3.8517,-3.8454,-3.8457,-3.8472,-3.8575,-3.8604,-3.8614,-3.8715,-3.8655,-3.8661,-3.8665,-3.8668,-3.8872,-3.8873,0,0,0,0,0,0,-3.8188,-3.8212,-3.838,-3.8388,-3.8285,-3.8379,-3.8395,-3.8434,-3.8516,-3.8528,-3.8473,-3.8473,-3.8594,-3.8606,-3.8618,-3.87,-3.8662,-3.8668,-3.8672,-3.887,-3.8872,-3.8874,0,0,0,0,0,0,-3.8183,-3.8203,-3.8375,-3.8301,-3.8323,-3.8385,-3.8428,-3.8438,-3.8467,-3.8531,-3.8541,-3.8492,-3.8593,-3.8609,-3.8681,-3.8705,-3.8671,-3.8677,-3.8868,-3.8871,-3.8873,-3.8863,0,0,0,0,0,0,-3.8177,-3.8201,-3.8228,-3.8301,-3.8327,-3.8436,-3.843,-3.8441,-3.8478,-3.848,-3.8551,-3.8561,-3.8594,-3.8671,-3.8687,-3.8713,-3.8682,-3.8866,-3.8869,-3.8872,-3.8862,-3.8865,-3.8868,0,0,0,0,0,-3.8168,-3.8219,-3.8229,-3.8249,-3.8362,-3.8437,-3.8451,-3.8489,-3.848,-3.8507,-3.8548,-3.8559,-3.87,-3.8678,-3.8696,-3.8725,-3.8865,-3.8868,-3.8872,-3.886,-3.8865,-3.8868,0,0,0,0,0,0,-3.8145,-3.8229,-3.8241,-3.8317,-3.837,-3.8442,-3.8476,-3.8492,-3.8547,-3.8545,-3.8588,-3.8604,-3.8672,-3.8706,-3.8679,-3.8792,-3.8782,-3.879,-3.8767,-3.8772,-3.8775,-3.8764,-3.8687,0,0,0,0,0,-3.8149,-3.8204,-3.8275,-3.8335,-3.8361,-3.8414,-3.8448,-3.8473,-3.8528,-3.855,-3.8596,-3.8649,-3.8705,-3.874,-3.8796,-3.8868,-3.8883,-3.8897,-3.89,-3.8902,-3.8907,-3.8946,-3.8953,-3.8885,-3.8885,-3.8885,0,0,-3.8157,-3.821,-3.8242,-3.8332,-3.8375,-3.843,-3.8433,-3.8491,-3.8531,-3.8559,-3.8628,-3.8664,-3.8726,-3.8797,-3.8831,-3.8827,-3.8929,-3.8906,-3.8908,-3.8912,-3.895,-3.8957,-3.8962,-3.8888,-3.8887,-3.8887,0,0,-3.8199,-3.8246,-3.8301,-3.8345,-3.8411,-3.8447,-3.846,-3.853,-3.8555,-3.8627,-3.8648,-3.8697,-3.8793,-3.8835,-3.8869,-3.8929,-3.8941,-3.8946,-3.8961,-3.8999,-3.9004,-3.9009,-3.9028,-3.9035,-3.8951,-3.8951,-3.8951,0,-3.82,-3.8285,-3.8327,-3.8384,-3.8422,-3.8451,-3.8506,-3.8546,-3.8627,-3.8652,-3.8648,-3.8769,-3.8812,-3.8893,-3.8908,-3.8936,-3.895,-3.8936,-3.9,-3.9006,-3.9011,-3.903,-3.9037,-3.8951,-3.8951,-3.8951,-3.8951,0,-3.8282,-3.8341,-3.8377,-3.8455,-3.8498,-3.8553,-3.8602,-3.864,-3.8661,-3.8696,-3.8768,-3.8821,-3.8887,-3.8909,-3.893,-3.8993,-3.8989,-3.8992,-3.8982,-3.9016,-3.9035,-3.9042,-3.8951,-3.8951,-3.8951,-3.8951,0,0,-3.8311,-3.8413,-3.8425,-3.846,-3.8537,-3.8582,-3.8639,-3.8705,-3.8735,-3.8791,-3.8838,-3.8919,-3.8923,-3.8962,-3.8988,-3.9021,-3.9063,-3.902,-3.9022,-3.9024,-3.9134,-3.9129,-3.9137,-3.9073,-3.9074,-3.9075,-3.9128,0,-3.8361,-3.8464,-3.8503,-3.8587,-3.8641,-3.867,-3.8719,-3.8771,-3.8806,-3.8855,-3.8894,-3.895,-3.8951,-3.8975,-3.901,-3.905,-3.9085,-3.9047,-3.9115,-3.9117,-3.9096,-3.9147,-3.9142,-3.919,-3.9136,-3.9137,-3.9138,0,-3.8432,-3.8489,-3.8578,-3.8648,-3.8672,-3.8715,-3.8779,-3.8827,-3.8885,-3.8908,-3.8952,-3.8976,-3.9035,-3.9024,-3.9106,-3.9079,-3.9109,-3.9134,-3.9137,-3.9142,-3.9127,-3.9152,-3.9206,-3.9212,-3.915,-3.9149,-3.9148,0,-3.8441,-3.854,-3.8606,-3.8636,-3.8719,-3.8749,-3.8785,-3.8842,-3.888,-3.8935,-3.8959,-3.9021,-3.9053,-3.91,-3.9139,-3.9128,-3.9217,-3.9209,-3.9236,-3.9234,-3.925,-3.9248,-3.9308,-3.9274,-3.9274,-3.9274,-3.9274,0,-3.8491,-3.8544,-3.8611,-3.8652,-3.8712,-3.8756,-3.8814,-3.8852,-3.8903,-3.895,-3.898,-3.9023,-3.9074,-3.9124,-3.9155,-3.9217,-3.9232,-3.9251,-3.9258,-3.9247,-3.9244,-3.9265,-3.9262,-3.9276,-3.9275,-3.9275,-3.9275,0,-3.851,-3.8558,-3.8631,-3.8705,-3.8724,-3.8765,-3.8827,-3.8867,-3.8904,-3.8963,-3.8979,-3.9037,-3.9097,-3.9142,-3.922,-3.9241,-3.9306,-3.9315,-3.9286,-3.9289,-3.9313,-3.9309,-3.9386,-3.9397,-3.9358,-3.9358,-3.9358,0,-3.8537,-3.8579,-3.8657,-3.8691,-3.8727,-3.8782,-3.8821,-3.8867,-3.8905,-3.8975,-3.9006,-3.9069,-3.9121,-3.9215,-3.9263,-3.9323,-3.9332,-3.9355,-3.9341,-3.9328,-3.9329,-3.9326,-3.9329,-3.9355,-3.9356,-3.9356,-3.9356,0,-3.858,-3.8602,-3.8657,-3.872,-3.8765,-3.8817,-3.8869,-3.8895,-3.895,-3.8992,-3.9054,-3.9095,-3.9175,-3.9236,-3.9301,-3.9336,-3.9355,-3.9361,-3.9369,-3.9357,-3.9338,-3.9346,-3.9289,-3.9358,-3.9358,-3.9357,-3.9357,-3.9357,-3.8603,-3.8641,-3.8701,-3.8761,-3.8806,-3.8854,-3.8895,-3.8937,-3.8991,-3.906,-3.9084,-3.9148,-3.9205,-3.9294,-3.9331,-3.9381,-3.9381,-3.9394,-3.9397,-3.9399,-3.9397,-3.9332,-3.9393,-3.9393,-3.9393,-3.9393,-3.9393,0,-3.8645,-3.8686,-3.8741,-3.8813,-3.886,-3.8876,-3.8935,-3.8972,-3.9028,-3.9081,-3.9133,-3.9204,-3.9264,-3.9317,-3.9379,-3.9409,-3.9419,-3.9423,-3.942,-3.9428,-3.9395,-3.938,-3.9414,-3.9414,-3.9414,-3.9414,-3.9414,-3.9414,-3.8672,-3.8737,-3.8766,-3.8852,-3.8893,-3.8957,-3.8989,-3.9033,-3.9075,-3.9154,-3.9204,-3.9239,-3.9292,-3.9358,-3.9414,-3.9428,-3.9448,-3.945,-3.9466,-3.9433,-3.943,-3.9428,-3.9414,-3.9455,-3.9455,-3.9495,-3.9495,-3.9495]},{"header":{"parameterUnit":"m.s-1","parameterCategory":1,"la1":30.2991,"la2":30.254,"lo1":-89.0895,"lo2":-89.0444,"dy":0.0017,"dx":0.0017,"nx":28,"ny":28,"refTime":"2024-05-29T21:00:00:Z","depth":0,"parameterNumber":3,"parameterNumberName":"V-component_of_WINDS"},"data":[0,0,0,0,0,0,0,0,0,0,0,0,0,0,0,0,0,0,0,0,0,0,0,0,0,0,0,0,0,0,0,0,0,0,0,0,0,0,0,0,0,0,0,0,0,0,0,0,0,0,0,0,0,0,0,0,0,0,3.2652,3.2653,0,3.2706,3.2707,3.2707,3.2673,3.2672,3.267,3.2669,3.2719,3.2722,3.2725,0,0,0,0,0,0,0,0,0,0,0,0,0,3.2516,3.2519,3.2652,3.2653,3.2653,3.2706,3.2707,3.2707,3.2674,3.2672,3.267,3.2668,3.2718,3.2722,3.2725,0,0,0,0,0,0,0,0,0,0,0,0,0,3.2573,3.2519,3.2652,3.2643,3.2643,3.2706,3.2707,3.2708,3.2674,3.2672,3.2669,3.2667,3.2717,3.2721,3.2726,3.2799,0,0,3.2738,3.274,0,0,0,0,0,0,0,0,3.257,3.2578,3.2644,3.2644,3.2643,3.2681,3.2677,3.2738,3.2675,3.2662,3.2669,3.2666,3.2708,3.2713,3.2728,3.2801,3.2804,3.2739,3.2741,3.2743,3.2744,0,0,0,0,0,0,0,3.2566,3.2575,3.2673,3.2645,3.2645,3.2635,3.264,3.2689,3.2697,3.2663,3.2661,3.2668,3.2707,3.2724,3.2729,3.2804,3.2739,3.2743,3.2745,3.2747,3.2941,3.2943,0,0,0,0,0,0,3.2563,3.2572,3.2671,3.2675,3.26,3.2639,3.2646,3.2671,3.2697,3.2699,3.267,3.2666,3.2718,3.2724,3.2731,3.2818,3.2743,3.2747,3.275,3.2938,3.2941,3.2944,0,0,0,0,0,0,3.256,3.2572,3.2669,3.2623,3.2635,3.2644,3.2673,3.2673,3.269,3.2702,3.2703,3.2685,3.2716,3.2725,3.2783,3.2819,3.2749,3.2753,3.2935,3.2939,3.2943,3.2994,0,0,0,0,0,0,3.2557,3.2572,3.26,3.2624,3.2637,3.2722,3.2675,3.2676,3.2698,3.2693,3.2717,3.2718,3.2715,3.2777,3.2787,3.2824,3.2756,3.2932,3.2937,3.2942,3.2989,3.2999,3.3008,0,0,0,0,0,3.2552,3.2611,3.2602,3.2614,3.2674,3.2724,3.2731,3.2727,3.2701,3.2729,3.2737,3.2718,3.2814,3.2783,3.2794,3.2833,3.293,3.2936,3.2941,3.2985,3.2997,3.3008,0,0,0,0,0,0,3.2589,3.2614,3.2604,3.2673,3.2697,3.2718,3.2753,3.2741,3.2771,3.2765,3.2759,3.2764,3.2825,3.2835,3.2799,3.2906,3.2867,3.2876,3.2897,3.2908,3.2918,3.2913,3.276,0,0,0,0,0,3.2606,3.2646,3.2665,3.2724,3.2737,3.2744,3.2765,3.2761,3.2784,3.2793,3.2806,3.2828,3.2864,3.2887,3.292,3.2991,3.2995,3.3023,3.3033,3.3041,3.3047,3.3085,3.3098,3.2964,3.2964,3.2964,0,0,3.264,3.2659,3.2684,3.2732,3.275,3.2791,3.2752,3.2796,3.2826,3.28,3.2855,3.2866,3.289,3.2955,3.2984,3.2965,3.3086,3.3048,3.3054,3.3057,3.3093,3.3105,3.3117,3.2968,3.2967,3.2966,0,0,3.2723,3.2742,3.2793,3.2812,3.2841,3.2845,3.2857,3.2881,3.2887,3.2944,3.2925,3.296,3.3021,3.3039,3.3057,3.3149,3.3132,3.316,3.3208,3.3246,3.3256,3.3266,3.3298,3.3309,3.3167,3.3167,3.3167,0,3.2761,3.2823,3.2821,3.2867,3.2888,3.2869,3.2921,3.2939,3.2976,3.2991,3.297,3.3047,3.3062,3.3131,3.3154,3.3169,3.3182,3.3156,3.3255,3.3265,3.3273,3.3304,3.3316,3.317,3.317,3.317,3.3169,0,3.2868,3.2911,3.2949,3.2988,3.3013,3.3062,3.3066,3.3093,3.3087,3.3093,3.315,3.3169,3.3205,3.3222,3.3215,3.329,3.3277,3.3256,3.3217,3.3289,3.3318,3.3329,3.3175,3.3174,3.3173,3.3172,0,0,3.2974,3.3012,3.3026,3.3043,3.3074,3.3107,3.3154,3.3192,3.3215,3.3241,3.328,3.3334,3.3315,3.3335,3.333,3.3364,3.3435,3.3338,3.3338,3.3354,3.3518,3.3532,3.3546,3.3425,3.3427,3.3429,3.3515,0,3.3058,3.3142,3.3143,3.322,3.326,3.3243,3.3284,3.3307,3.3315,3.3349,3.3356,3.3394,3.3367,3.3378,3.3411,3.3419,3.3467,3.3413,3.3459,3.3461,3.3452,3.3561,3.3577,3.3657,3.3526,3.3528,3.353,0,3.3166,3.3199,3.3281,3.3307,3.3323,3.3361,3.3396,3.3429,3.3454,3.3457,3.3481,3.3472,3.352,3.3481,3.3546,3.351,3.3529,3.3536,3.3539,3.3542,3.3498,3.3566,3.3683,3.3695,3.3547,3.3546,3.3545,0,3.3234,3.3298,3.3356,3.3371,3.3403,3.343,3.3444,3.3468,3.3491,3.3521,3.3536,3.3571,3.359,3.3617,3.3617,3.3589,3.3683,3.3645,3.3686,3.3686,3.3705,3.3703,3.3826,3.372,3.3719,3.3719,3.3719,0,3.3327,3.3377,3.3387,3.3422,3.3478,3.3478,3.3533,3.3545,3.3566,3.3603,3.359,3.3624,3.3624,3.3659,3.366,3.3713,3.3722,3.3725,3.3724,3.3725,3.3725,3.3736,3.373,3.3722,3.3722,3.3721,3.3721,0,3.3411,3.342,3.3481,3.3507,3.3515,3.3555,3.3577,3.361,3.3617,3.3664,3.3674,3.3685,3.3726,3.373,3.3776,3.3777,3.3841,3.3835,3.3833,3.3832,3.3872,3.3868,3.4005,3.4023,3.3907,3.3908,3.3909,0,3.3469,3.3508,3.3539,3.3563,3.358,3.3619,3.3643,3.3645,3.367,3.3703,3.3732,3.3772,3.3803,3.3868,3.3879,3.3915,3.3909,3.3955,3.3914,3.3914,3.3908,3.3906,3.3909,3.3962,3.3963,3.3964,3.3965,0,3.3571,3.3574,3.361,3.3648,3.3677,3.3706,3.3734,3.3754,3.3759,3.3788,3.383,3.3855,3.3904,3.3943,3.3978,3.3991,3.3979,3.3978,3.399,3.399,3.3987,3.3988,3.3853,3.3975,3.3974,3.3973,3.3972,3.3972,3.3643,3.3677,3.3705,3.3745,3.3767,3.3793,3.3826,3.3838,3.3874,3.3914,3.3913,3.3959,3.3984,3.4031,3.4047,3.4082,3.4067,3.4083,3.4087,3.4091,3.4095,3.3983,3.4089,3.4089,3.4088,3.4088,3.4088,0,3.3743,3.3761,3.3799,3.3838,3.387,3.3858,3.3889,3.3915,3.3957,3.3982,3.4014,3.4063,3.4101,3.4116,3.4154,3.4179,3.4174,3.4189,3.4186,3.4189,3.4107,3.4093,3.4192,3.4192,3.4192,3.4192,3.4192,3.4192,3.3799,3.3856,3.3863,3.393,3.3946,3.3993,3.4011,3.4035,3.4055,3.4111,3.4143,3.4154,3.4175,3.4214,3.4248,3.4252,3.4265,3.4282,3.4283,3.4205,3.4195,3.4185,3.4172,3.4285,3.4286,3.4362,3.4363,3.4363]}]]